This is the latest recevied weather packets stored in our database for station/object YC0ACE-13. If no packets are shown the sender has not sent any weather packets the latest 10 day(s).
| Time | Temp. | Humidity | Pressure | Rain* | Wind** | Luminosity | Snow |
|---|---|---|---|---|---|---|---|
| 1777512625 | 30° C | 75% | 1016.3 hPa | 0 mm | - | 393 W/m² | - |
| 1777512324 | 30.56° C | 75% | 1016.3 hPa | 0 mm | - | 311 W/m² | - |
| 1777512026 | 30° C | 76% | 1016.3 hPa | 0 mm | - | 287 W/m² | - |
| 1777511725 | 30° C | 76% | 1016.3 hPa | 0 mm | - | 268 W/m² | - |
| 1777511425 | 29.44° C | 78% | 1015.9 hPa | 0 mm | - | 253 W/m² | - |
| 1777511125 | 29.44° C | 78% | 1015.9 hPa | 0 mm | - | 231 W/m² | - |
| 1777510824 | 29.44° C | 79% | 1016.3 hPa | 0 mm | - | 215 W/m² | - |
| 1777510525 | 28.89° C | 79% | 1015.9 hPa | 0 mm | - | 201 W/m² | - |
| 1777510224 | 28.89° C | 80% | 1015.9 hPa | 0 mm | - | 189 W/m² | - |
| 1777509925 | 28.89° C | 80% | 1015.9 hPa | 0 mm | - | 169 W/m² | - |
| 1777509625 | 28.89° C | 81% | 1015.9 hPa | 0 mm | - | 148 W/m² | - |
| 1777509324 | 28.89° C | 81% | 1015.9 hPa | 0 mm | - | 134 W/m² | - |
| 1777509025 | 28.89° C | 81% | 1015.9 hPa | 0 mm | - | 119 W/m² | - |
| 1777508724 | 28.89° C | 82% | 1015.9 hPa | 0 mm | - | 111 W/m² | - |
| 1777508424 | 28.33° C | 82% | 1015.9 hPa | 0 mm | - | 106 W/m² | - |
| 1777508125 | 28.33° C | 82% | 1015.9 hPa | 0 mm | - | 95 W/m² | - |
| 1777507825 | 28.33° C | 83% | 1015.6 hPa | 0 mm | - | 90 W/m² | - |
| 1777507525 | 28.33° C | 83% | 1015.6 hPa | 0 mm | - | 82 W/m² | - |
| 1777507225 | 28.33° C | 83% | 1015.6 hPa | 0 mm | - | 75 W/m² | - |
| 1777506925 | 28.33° C | 83% | 1015.9 hPa | 0 mm | - | 67 W/m² | - |
| 1777506626 | 28.33° C | 83% | 1015.6 hPa | 0 mm | - | 61 W/m² | - |
| 1777506325 | 28.33° C | 83% | 1015.6 hPa | 0 mm | - | 54 W/m² | - |
| 1777506024 | 27.78° C | 83% | 1015.6 hPa | 0 mm | - | 49 W/m² | - |
| 1777505724 | 27.78° C | 83% | 1015.6 hPa | 0 mm | - | 43 W/m² | - |
| 1777505425 | 27.78° C | 84% | 1015.2 hPa | 0 mm | - | 36 W/m² | - |
* Rain latest hour (hover to see other rain measurements)
** Current wind speed in m/s (hover to see current wind gust speed)